Location: Riverton
(43.0250°N, 108.3790°W)
Time: 10:45:09
(UTC-06:00)

Amateur Radio Satellites - All Passes

Search period start: 25 July 2017 10:15
Search period end: 26 July 2017 10:15
Location: Riverton, 43.0250°N, 108.3790°W

Satellite Date Start Highest point End Downlink Frequencies (MHz)
Time Altitude Azimuth
DELFI C3 25 Jul 10:17:14 10:20:43 28° 96° (E) 10:24:11 145.870
AIST 2D 25 Jul 10:31:56 10:32:50 11° 64° (ENE) 10:33:42 435.315
UWE-3 25 Jul 10:37:21 10:40:07 17° 295° (WNW) 10:42:52 435.000/436.395/437.385
FO-29 25 Jul 10:37:29 10:44:53 53° 262° (W) 10:52:35 435.910
EO-88 25 Jul 10:40:52 10:44:08 31° 97° (E) 10:47:24 145.990 - 145.960
ZACube-1 25 Jul 10:50:10 10:53:21 22° 293° (WNW) 10:56:31 437.345
NO-84 25 Jul 10:51:41 10:53:47 18° 127° (SE) 10:56:00 435.350 FM
PRISM 25 Jul 10:52:04 10:56:01 46° 260° (W) 11:00:01 437.425
AAUSAT CUBESAT 2 25 Jul 10:53:45 10:55:26 12° 298° (WNW) 10:57:06 437.432
UNISAT 6 25 Jul 10:59:33 11:03:52 37° 263° (W) 11:08:08 437.425
Oscar 11 25 Jul 11:16:03 11:19:01 18° 295° (WNW) 11:21:59 .
DUCHIFAT 1 25 Jul 11:17:55 11:20:44 18° 65° (ENE) 11:23:32 145.980
POLYITAN 1 25 Jul 11:20:15 11:23:36 23° 67° (ENE) 11:26:56 437.675
QB50P2 25 Jul 11:32:44 11:36:34 33° 69° (ENE) 11:40:24 145.880/145.840
NANOSAT C BR1 25 Jul 11:44:24 11:48:17 36° 70° (ENE) 11:52:11 145.865
EO-79 25 Jul 11:44:29 11:48:27 40° 71° (ENE) 11:52:27 145.935-145.965
TIGRISAT 25 Jul 11:45:46 11:48:24 15° 269° (W) 11:51:00 435.000
BUGSAT 1 25 Jul 11:47:20 11:48:27 11° 61° (ENE) 11:49:35 437.445
M-CUBED/EXP-1 PRIME 25 Jul 11:48:46 11:50:59 15° 264° (W) 11:53:17 437.505
DELFI C3 25 Jul 11:52:08 11:55:21 24° 292° (WNW) 11:58:33 145.870
AIST 2D 25 Jul 12:02:12 12:05:35 49° 260° (W) 12:08:59 435.315
EO-88 25 Jul 12:15:06 12:17:35 18° 293° (WNW) 12:20:04 145.990 - 145.960
LO-87 25 Jul 12:17:19 12:20:54 64° 100° (E) 12:24:27 145.935 - 145.965
SPROUT 25 Jul 12:23:26 12:23:36 10° 88° (E) 12:23:47 437.525
ESTCUBE 1 25 Jul 12:23:41 12:28:01 43° 99° (E) 12:32:20 437.505/2401.250
BEESAT 3 25 Jul 12:24:37 12:27:35 20° 112° (ESE) 12:30:35 437.485
Oscar 19 25 Jul 12:25:44 12:28:38 15° 59° (ENE) 12:31:32 437.125/150
NO-84 25 Jul 12:27:58 12:30:55 43° 326° (NNW) 12:34:09 435.350 FM
DUCHIFAT 1 25 Jul 12:51:59 12:56:03 45° 261° (W) 13:00:08 145.980
Gurwin Techsat 1B 25 Jul 12:53:50 12:57:26 19° 61° (ENE) 13:01:02 435.225
POLYITAN 1 25 Jul 12:55:19 12:59:12 33° 263° (W) 13:03:05 437.675
PCSat 25 Jul 13:02:08 13:05:46 18° 40° (NE) 13:09:23 145.827
BEESAT 2 25 Jul 13:05:26 13:08:15 19° 111° (ESE) 13:11:05 435.950
VELOX 1 25 Jul 13:08:04 13:11:57 28° 96° (E) 13:15:47 145.980
QB50P2 25 Jul 13:09:01 13:12:23 22° 266° (W) 13:15:46 145.880/145.840
50 SAT 25 Jul 13:18:21 13:19:49 12° 92° (E) 13:21:16 437.505
BUGSAT 1 25 Jul 13:18:56 13:23:11 78° 258° (WSW) 13:27:26 437.445
NANOSAT C BR1 25 Jul 13:20:55 13:24:05 20° 266° (W) 13:27:17 145.865
EO-79 25 Jul 13:21:23 13:24:22 18° 267° (W) 13:27:23 145.935-145.965
AO-85 25 Jul 13:27:05 13:31:04 87° 303° (WNW) 13:35:01 145.980
UKube-1 25 Jul 13:54:47 13:57:46 18° 93° (E) 14:00:43 .
SPROUT 25 Jul 13:55:44 14:00:00 73° 286° (WNW) 14:04:14 437.525
BEESAT 3 25 Jul 14:01:08 14:04:54 39° 310° (NW) 14:08:44 437.485
ESTCUBE 1 25 Jul 14:01:13 14:04:31 20° 295° (WNW) 14:07:47 437.505/2401.250
Oscar 19 25 Jul 14:02:13 14:07:19 75° 257° (WSW) 14:12:28 437.125/150
NO-84 25 Jul 14:07:18 14:09:10 14° 348° (NNW) 14:11:06 435.350 FM
ITAMSAT 1 25 Jul 14:18:27 14:21:04 14° 58° (ENE) 14:23:42 435.822/435.867
RS-15 25 Jul 14:20:52 14:27:50 18° 95° (E) 14:34:49 29.354- 29.394
AO-7 25 Jul 14:29:48 14:37:08 36° 57° (ENE) 14:44:29 .
Gurwin Techsat 1B 25 Jul 14:31:35 14:36:51 64° 258° (WSW) 14:42:09 435.225
BEESAT 2 25 Jul 14:41:51 14:45:41 43° 309° (NW) 14:49:34 435.950
VELOX 1 25 Jul 14:44:29 14:48:20 29° 292° (WNW) 14:52:09 145.980
PCSat 25 Jul 14:44:30 14:49:57 88° 55° (NE) 14:55:23 145.827
SO-50 25 Jul 14:44:34 14:48:40 32° 46° (NE) 14:52:47 436.795
O/OREOS (USA 219) 25 Jul 14:46:28 14:49:11 16° 100° (E) 14:51:54 437.305
DX 1 25 Jul 14:47:58 14:52:23 81° 285° (WNW) 14:56:46 434.975-435.025
50 SAT 25 Jul 14:49:30 14:52:44 38° 288° (WNW) 14:55:56 437.505
AO-85 25 Jul 15:10:27 15:12:05 12° 323° (NW) 15:13:41 145.980
UKube-1 25 Jul 15:29:52 15:33:58 43° 289° (WNW) 15:38:04 .
BEESAT 25 Jul 15:37:48 15:41:40 24° 95° (E) 15:45:30 436.000
NO-84 25 Jul 15:46:01 15:47:52 13° 10° (N) 15:49:48 435.350 FM
ITUPSAT 1 25 Jul 15:51:05 15:55:21 32° 97° (E) 15:59:35 437.325
ITAMSAT 1 25 Jul 15:54:33 15:59:48 86° 256° (WSW) 16:05:04 435.822/435.867
AO-7 25 Jul 16:21:19 16:29:30 58° 257° (WSW) 16:37:47 .
DOVE 4 25 Jul 16:21:30 16:23:35 13° 58° (ENE) 16:25:42 437.250
O/OREOS (USA 219) 25 Jul 16:23:46 16:28:08 51° 297° (WNW) 16:32:30 437.305
SO-50 25 Jul 16:25:02 16:29:06 33° 245° (WSW) 16:33:12 436.795
RS-15 25 Jul 16:25:55 16:38:00 72° 117° (ESE) 16:50:15 29.354- 29.394
PCSat 25 Jul 16:30:11 16:32:32 13° 258° (WSW) 16:34:54 145.827
MOZHAYETS 4 25 Jul 16:33:38 16:38:12 69° 102° (ESE) 16:42:44
CUBESAT XI-V 25 Jul 17:09:48 17:14:02 33° 96° (E) 17:18:14 437.345
KKS-1 25 Jul 17:11:49 17:14:52 18° 92° (E) 17:17:53 437.445
BEESAT 25 Jul 17:15:10 17:19:31 37° 292° (WNW) 17:23:53 436.000
NO-84 25 Jul 17:22:50 17:26:15 32° 30° (NNE) 17:29:53 435.350 FM
ITUPSAT 1 25 Jul 17:29:01 17:33:05 29° 293° (WNW) 17:37:08 437.325
KAITUO 1B 25 Jul 17:29:42 17:31:03 12° 64° (ENE) 17:32:24 145.475/437.950
LilacSat-2 25 Jul 17:31:41 17:34:13 17° 66° (ENE) 17:36:46 437.200
ITAMSAT 1 25 Jul 17:39:01 17:40:00 10° 273° (W) 17:40:58 435.822/435.867
STARS 25 Jul 17:40:25 17:42:54 15° 91° (E) 17:45:23 437.465
XW-2F 25 Jul 17:44:37 17:47:30 21° 68° (ENE) 17:50:24 145.980 - 146.000
CUTE-I 25 Jul 17:46:42 17:51:20 31° 65° (ENE) 17:56:00 437.470
DOVE 4 25 Jul 17:55:29 18:00:23 88° 74° (ENE) 18:05:35 437.250
YUBILEINY 25 Jul 18:02:25 18:09:04 25° 80° (E) 18:15:41 435.215
MOZHAYETS 4 25 Jul 18:12:31 18:14:48 14° 299° (WNW) 18:17:03
XW-2D 25 Jul 18:12:55 18:16:33 50° 74° (ENE) 18:20:12 145.860 - 145.880
XW-2B 25 Jul 18:22:55 18:26:38 65° 75° (ENE) 18:30:21 145.730 - 145.750
RS-15 25 Jul 18:39:55 18:51:29 44° 323° (NW) 19:03:07 29.354- 29.394
XW-2C 25 Jul 18:40:17 18:44:01 73° 258° (WSW) 18:47:47 145.795 - 145.815
NUDT-PHONESAT 25 Jul 18:45:32 18:49:12 86° 257° (WSW) 18:52:54 437.300
HO-68 25 Jul 18:46:15 18:52:52 42° 64° (ENE) 18:59:30 435.675
KKS-1 25 Jul 18:47:21 18:51:38 45° 289° (WNW) 18:55:53 437.445
CUBESAT XI-V 25 Jul 18:47:21 18:51:16 27° 293° (WNW) 18:55:12 437.345
NO-84 25 Jul 19:00:06 19:03:50 44° 226° (SW) 19:07:48 435.350 FM
KAITUO 1B 25 Jul 19:01:00 19:04:35 52° 260° (W) 19:08:13 145.475/437.950
CUBEBUG 2 25 Jul 19:01:45 19:05:04 20° 65° (ENE) 19:08:19 437.445
LilacSat-2 25 Jul 19:04:48 19:08:15 34° 263° (W) 19:11:43 437.200
CUTE 1.7 + AOD 2 25 Jul 19:14:35 19:18:31 42° 72° (ENE) 19:22:30 437.475
STARS 25 Jul 19:15:15 19:19:34 53° 288° (WNW) 19:23:50 437.465
XW-2F 25 Jul 19:18:20 19:21:31 26° 265° (W) 19:24:41 145.980 - 146.000
SEEDS 25 Jul 19:25:42 19:29:28 35° 71° (ENE) 19:33:17 437.485
CUTE-I 25 Jul 19:26:19 19:31:15 37° 263° (W) 19:36:14 437.470
DOVE 4 25 Jul 19:37:30 19:38:49 11° 275° (W) 19:40:09 437.250
XW-2D 25 Jul 19:49:52 19:51:03 11° 270° (W) 19:52:14 145.860 - 145.880
XW-2A 25 Jul 19:52:59 19:56:21 73° 75° (ENE) 19:59:43 145.665 - 145.685
YUBILEINY 25 Jul 19:56:07 20:04:56 74° 280° (W) 20:13:49 435.215
UWE-3 25 Jul 19:57:14 20:01:31 40° 71° (ENE) 20:05:41 435.000/436.395/437.385
Tancredo 1 25 Jul 19:58:10 20:00:36 24° 137° (SE) 20:03:02 437.200
AAUSAT CUBESAT 2 25 Jul 20:06:59 20:10:55 46° 73° (ENE) 20:14:53 437.432
ZACube-1 25 Jul 20:09:50 20:13:42 30° 69° (ENE) 20:17:31 437.345
STRAND 1 25 Jul 20:13:58 20:18:46 39° 98° (E) 20:23:30 437.568
AO-85 25 Jul 20:17:32 20:19:59 15° 40° (NE) 20:22:31 145.980
nSIGHT-1 25 Jul 20:27:00 20:29:22 19° 134° (SE) 20:31:43 .
HO-68 25 Jul 20:33:55 20:40:34 40° 262° (W) 20:47:16 435.675
Oscar 11 25 Jul 20:34:33 20:38:30 37° 70° (ENE) 20:42:28 .
CUBEBUG 2 25 Jul 20:36:48 20:41:20 48° 261° (W) 20:45:48 437.445
BEESAT 3 25 Jul 20:39:54 20:42:52 19° 43° (NE) 20:45:49 437.485
AO-73 25 Jul 20:48:59 20:53:23 71° 75° (ENE) 20:57:42 145.935
CUTE 1.7 + AOD 2 25 Jul 20:51:50 20:54:34 17° 268° (W) 20:57:18 437.475
RS-15 25 Jul 20:58:35 21:08:24 26° 356° (N) 21:18:03 29.354- 29.394
SEEDS 25 Jul 21:02:13 21:05:16 20° 267° (W) 21:08:19 437.485
DELFI C3 25 Jul 21:03:55 21:06:42 19° 66° (ENE) 21:09:30 145.870
EO-88 25 Jul 21:20:12 21:22:32 16° 66° (ENE) 21:24:53 145.990 - 145.960
ISS 25 Jul 21:20:47 21:24:00 60° 142° (SE) 21:27:12 437.550
BEESAT 2 25 Jul 21:21:24 21:24:22 19° 42° (NE) 21:27:18 435.950
Tancredo 1 25 Jul 21:33:05 21:35:52 39° 334° (NNW) 21:38:40 437.200
UWE-3 25 Jul 21:34:39 21:38:04 21° 267° (W) 21:41:27 435.000/436.395/437.385
AAUSAT CUBESAT 2 25 Jul 21:44:17 21:46:38 15° 269° (W) 21:48:58 437.432
ZACube-1 25 Jul 21:46:15 21:49:58 26° 265° (W) 21:53:38 437.345
FO-29 25 Jul 21:47:52 21:53:35 26° 89° (E) 21:58:45 435.910
STRAND 1 25 Jul 21:53:30 21:57:45 27° 295° (WNW) 22:01:58 437.568
AO-85 25 Jul 21:56:39 22:00:52 82° 238° (WSW) 22:05:22 145.980
YUBILEINY 25 Jul 21:58:23 22:03:28 16° 303° (WNW) 22:08:35 435.215
TIGRISAT 25 Jul 22:00:32 22:01:04 10° 88° (E) 22:01:35 435.000
nSIGHT-1 25 Jul 22:02:19 22:05:30 56° 331° (NNW) 22:08:41 .
Oscar 11 25 Jul 22:11:33 22:14:45 20° 267° (W) 22:17:57 .
BEESAT 3 25 Jul 22:16:50 22:20:43 49° 241° (WSW) 22:24:31 437.485
AO-73 25 Jul 22:28:52 22:30:03 11° 271° (W) 22:31:13 145.935
PRISM 25 Jul 22:32:46 22:35:59 21° 94° (E) 22:39:09 437.425
DELFI C3 25 Jul 22:37:36 22:41:13 35° 263° (W) 22:44:52 145.870
UNISAT 6 25 Jul 22:50:04 22:54:10 40° 98° (E) 22:58:11 437.425
EO-88 25 Jul 22:52:38 22:55:57 33° 263° (W) 22:59:17 145.990 - 145.960
LO-87 25 Jul 22:54:10 22:57:20 29° 70° (ENE) 23:00:30 145.935 - 145.965
ISS 25 Jul 22:57:49 23:00:40 27° 342° (NNW) 23:03:30 437.550
BEESAT 2 25 Jul 22:58:26 23:02:25 53° 241° (WSW) 23:06:20 435.950
Tancredo 1 25 Jul 23:09:53 23:11:51 16° 353° (N) 23:13:49 437.200
RS-15 25 Jul 23:14:40 23:25:46 37° 30° (NNE) 23:36:24 29.354- 29.394
ESTCUBE 1 25 Jul 23:23:52 23:28:06 44° 71° (ENE) 23:32:21 437.505/2401.250
M-CUBED/EXP-1 PRIME 25 Jul 23:23:57 23:28:03 30° 101° (E) 23:32:09 437.505
AIST 2D 25 Jul 23:28:21 23:29:08 11° 90° (E) 23:29:54 435.315
FO-29 25 Jul 23:32:07 23:39:09 58° 291° (WNW) 23:45:20 435.910
TIGRISAT 25 Jul 23:33:58 23:38:17 71° 285° (WNW) 23:42:31 435.000
nSIGHT-1 25 Jul 23:39:57 23:42:24 19° 350° (N) 23:44:52 .
VELOX 1 26 Jul 00:06:05 00:09:52 28° 67° (ENE) 00:13:41 145.980
PRISM 26 Jul 00:07:32 00:11:18 34° 291° (WNW) 00:15:04 437.425
DX 1 26 Jul 00:11:40 00:12:46 11° 59° (ENE) 00:13:53 434.975-435.025
UNISAT 6 26 Jul 00:27:31 00:30:35 19° 295° (WNW) 00:33:37 437.425
LO-87 26 Jul 00:28:11 00:30:47 18° 266° (W) 00:33:24 145.935 - 145.965
DUCHIFAT 1 26 Jul 00:35:12 00:38:40 25° 95° (E) 00:42:06 145.980
ISS 26 Jul 00:35:35 00:37:54 18° 2° (N) 00:40:12 437.550
POLYITAN 1 26 Jul 00:38:50 00:42:41 34° 97° (E) 00:46:30 437.675
Tancredo 1 26 Jul 00:45:48 00:48:01 19° 13° (NNE) 00:50:16 437.200
SPROUT 26 Jul 00:49:19 00:53:38 88° 265° (W) 00:57:57 437.525
UKube-1 26 Jul 00:50:16 00:53:13 18° 64° (ENE) 00:56:11 .
QB50P2 26 Jul 00:51:45 00:55:53 53° 100° (E) 00:59:59 145.880/145.840
O/OREOS (USA 219) 26 Jul 00:53:34 00:57:45 37° 60° (ENE) 01:01:55 437.305
M-CUBED/EXP-1 PRIME 26 Jul 00:58:17 01:02:22 32° 297° (WNW) 01:06:29 437.505
AIST 2D 26 Jul 00:59:13 01:02:35 45° 286° (WNW) 01:05:56 435.315
BUGSAT 1 26 Jul 01:01:21 01:03:25 13° 91° (E) 01:05:27 437.445
ESTCUBE 1 26 Jul 01:02:00 01:05:06 18° 268° (W) 01:08:14 437.505/2401.250
NANOSAT C BR1 26 Jul 01:02:50 01:06:59 58° 101° (E) 01:11:06 145.865
EO-79 26 Jul 01:03:24 01:07:37 66° 102° (ESE) 01:11:46 145.935-145.965
nSIGHT-1 26 Jul 01:17:09 01:19:38 20° 11° (N) 01:22:07 .
FO-29 26 Jul 01:20:01 01:22:29 12° 312° (NW) 01:24:53 435.910
50 SAT 26 Jul 01:21:03 01:24:26 79° 78° (ENE) 01:27:52 437.505
RS-15 26 Jul 01:27:44 01:39:56 88° 239° (WSW) 01:51:27 29.354- 29.394
VELOX 1 26 Jul 01:42:26 01:46:15 28° 264° (W) 01:50:06 145.980
DX 1 26 Jul 01:43:54 01:48:16 84° 259° (W) 01:52:41 434.975-435.025
DUCHIFAT 1 26 Jul 02:10:42 02:14:18 28° 292° (WNW) 02:17:53 145.980
ISS 26 Jul 02:12:07 02:15:05 31° 22° (NNE) 02:18:02 437.550
Oscar 19 26 Jul 02:12:56 02:17:40 35° 97° (E) 02:22:23 437.125/150
POLYITAN 1 26 Jul 02:15:03 02:18:15 21° 294° (WNW) 02:21:26 437.675
Tancredo 1 26 Jul 02:20:51 02:23:49 76° 34° (NE) 02:26:45 437.200
UKube-1 26 Jul 02:24:46 02:28:53 45° 260° (W) 02:33:04 .
QB50P2 26 Jul 02:28:51 02:31:14 15° 297° (WNW) 02:33:37 145.880/145.840
O/OREOS (USA 219) 26 Jul 02:33:25 02:36:56 23° 258° (WSW) 02:40:26 437.305
BUGSAT 1 26 Jul 02:35:06 02:39:05 50° 287° (WNW) 02:42:59 437.445
NANOSAT C BR1 26 Jul 02:40:05 02:42:13 14° 298° (WNW) 02:44:20 145.865
EO-79 26 Jul 02:41:03 02:42:49 12° 299° (WNW) 02:44:35 145.935-145.965
BEESAT 26 Jul 02:44:51 02:49:03 32° 68° (ENE) 02:53:17 436.000
Gurwin Techsat 1B 26 Jul 02:46:49 02:51:57 47° 99° (E) 02:57:04 435.225
nSIGHT-1 26 Jul 02:53:18 02:56:31 60° 30° (NNE) 02:59:43 .
ITUPSAT 1 26 Jul 02:58:27 03:02:57 42° 70° (ENE) 03:07:27 437.325
MOZHAYETS 4 26 Jul 03:36:01 03:40:35 72° 75° (ENE) 03:45:09
RS-15 26 Jul 03:42:04 03:50:34 24° 261° (W) 03:58:50 29.354- 29.394
ISS 26 Jul 03:48:30 03:51:38 44° 219° (SW) 03:54:45 437.550
Oscar 19 26 Jul 03:52:25 03:56:53 30° 294° (WNW) 04:01:20 437.125/150
Tancredo 1 26 Jul 03:57:39 03:58:48 12° 228° (SW) 03:59:58 437.200
ITAMSAT 1 26 Jul 04:06:52 04:11:26 31° 96° (E) 04:15:59 435.822/435.867
KKS-1 26 Jul 04:10:45 04:13:58 20° 64° (ENE) 04:17:11 437.445
YUBILEINY 26 Jul 04:11:41 04:14:55 12° 53° (NE) 04:18:08 435.215
CUBESAT XI-V 26 Jul 04:13:52 04:18:02 35° 69° (ENE) 04:22:13 437.345
AO-7 26 Jul 04:21:45 04:29:45 47° 100° (E) 04:37:40 .
BEESAT 26 Jul 04:22:40 04:26:48 29° 264° (W) 04:30:57 436.000
Gurwin Techsat 1B 26 Jul 04:27:23 04:31:36 25° 297° (WNW) 04:35:50 435.225
nSIGHT-1 26 Jul 04:30:23 04:32:37 17° 227° (SW) 04:34:51 .
ITUPSAT 1 26 Jul 04:37:14 04:40:55 22° 266° (W) 04:44:37 437.325
STARS 26 Jul 04:37:57 04:40:41 16° 62° (ENE) 04:43:25 437.465
MOZHAYETS 4 26 Jul 05:16:40 05:18:14 12° 271° (W) 05:19:48
PCSat 26 Jul 05:26:41 05:32:03 68° 117° (ESE) 05:37:28 145.827
KKS-1 26 Jul 05:45:55 05:50:12 44° 261° (W) 05:54:30 437.445
ITAMSAT 1 26 Jul 05:46:13 05:50:54 35° 293° (WNW) 05:55:33 435.822/435.867
CUBESAT XI-V 26 Jul 05:51:46 05:55:28 24° 266° (W) 05:59:12 437.345
DOVE 4 26 Jul 05:54:02 05:58:22 25° 92° (E) 06:02:33 437.250
YUBILEINY 26 Jul 06:05:17 06:13:56 60° 77° (ENE) 06:22:30 435.215
STARS 26 Jul 06:12:14 06:16:34 54° 259° (W) 06:20:57 437.465
XW-2C 26 Jul 06:14:16 06:15:01 10° 90° (E) 06:15:47 145.795 - 145.815
AO-7 26 Jul 06:14:41 06:22:26 43° 300° (WNW) 06:30:06 .
KAITUO 1B 26 Jul 06:32:23 06:34:16 13° 91° (E) 06:36:09 145.475/437.950
LilacSat-2 26 Jul 06:37:05 06:40:04 22° 94° (E) 06:43:02 437.200
SO-50 26 Jul 06:39:21 06:43:49 62° 120° (ESE) 06:48:17 436.795
XW-2F 26 Jul 06:49:01 06:52:13 26° 96° (E) 06:55:25 145.980 - 146.000
PCSat 26 Jul 07:11:45 07:15:58 22° 317° (NW) 07:20:11 145.827
XW-2D 26 Jul 07:18:15 07:22:01 68° 102° (ESE) 07:25:46 145.860 - 145.880
XW-2B 26 Jul 07:28:21 07:32:08 87° 105° (ESE) 07:35:55 145.730 - 145.750
STRAND 1 26 Jul 07:30:30 07:35:34 62° 72° (ENE) 07:40:40 437.568
DOVE 4 26 Jul 07:31:13 07:36:10 42° 291° (WNW) 07:40:56 437.250
CUTE-I 26 Jul 07:41:46 07:47:10 82° 103° (ESE) 07:52:30 437.470
XW-2C 26 Jul 07:45:51 07:49:33 55° 286° (WNW) 07:53:14 145.795 - 145.815
NUDT-PHONESAT 26 Jul 07:48:33 07:52:13 69° 284° (WNW) 07:55:52 437.300
HO-68 26 Jul 08:00:01 08:06:39 39° 98° (E) 08:13:14 435.675
FO-29 26 Jul 08:01:23 08:06:11 18° 53° (NE) 08:10:58 435.910
YUBILEINY 26 Jul 08:02:52 08:10:11 31° 277° (W) 08:17:27 435.215
KAITUO 1B 26 Jul 08:04:57 08:08:28 41° 287° (WNW) 08:12:00 145.475/437.950
LilacSat-2 26 Jul 08:11:07 08:14:19 27° 291° (WNW) 08:17:32 437.200
AO-7 26 Jul 08:11:14 08:12:59 11° 322° (NW) 08:14:43 .
SO-50 26 Jul 08:21:16 08:24:40 20° 319° (NW) 08:28:03 436.795
XW-2F 26 Jul 08:23:19 08:26:13 22° 292° (WNW) 08:29:08 145.980 - 146.000
CUBEBUG 2 26 Jul 08:26:56 08:30:44 31° 96° (E) 08:34:27 437.445
CUTE 1.7 + AOD 2 26 Jul 08:33:41 08:37:58 77° 104° (ESE) 08:42:13 437.475
AO-73 26 Jul 08:38:05 08:39:30 11° 89° (E) 08:40:56 145.935
SEEDS 26 Jul 08:43:25 08:47:38 62° 101° (E) 08:51:49 437.485
XW-2A 26 Jul 08:46:19 08:49:38 67° 101° (E) 08:52:57 145.665 - 145.685
TIGRISAT 26 Jul 08:59:16 09:01:17 13° 61° (ENE) 09:03:17 435.000
STRAND 1 26 Jul 09:11:54 09:15:10 17° 269° (W) 09:18:26 437.568
UWE-3 26 Jul 09:21:55 09:26:07 77° 101° (E) 09:30:15 435.000/436.395/437.385
AAUSAT CUBESAT 2 26 Jul 09:23:01 09:27:13 79° 102° (ESE) 09:31:24 437.432
PRISM 26 Jul 09:23:15 09:26:01 18° 64° (ENE) 09:28:49 437.425
CUTE-I 26 Jul 09:23:32 09:26:30 15° 302° (WNW) 09:29:28 437.470
ZACube-1 26 Jul 09:32:39 09:36:44 54° 99° (E) 09:40:46 437.345
FO-29 26 Jul 09:42:15 09:49:53 74° 72° (ENE) 09:57:45 435.910
HO-68 26 Jul 09:47:45 09:54:23 43° 296° (WNW) 10:01:00 435.675
UNISAT 6 26 Jul 09:49:12 09:53:33 42° 71° (ENE) 09:57:51 437.425
Oscar 11 26 Jul 09:56:14 10:00:33 68° 101° (ESE) 10:04:51 .
CUBEBUG 2 26 Jul 10:03:51 10:07:12 23° 293° (WNW) 10:10:29 437.445
CUTE 1.7 + AOD 2 26 Jul 10:12:01 10:13:09 11° 299° (WNW) 10:14:18 437.475
